Alexandria, MN

3:10 PM CDT on August 25, 2016 (GMT -0500)
Chandler

Weather History for KAXN - January, 2014

Change the Weather History Date:

Wednesday, January 22, 2014

  Actual Average Record
Temperature  
Mean Temperature -6 °F -  
Max Temperature 5 °F 23 °F 45 °F (1981)
Min Temperature -16 °F 4 °F -27 °F (1963)
Degree Days  
Heating Degree Days 70    
Moisture  
Dew Point -13 °F    
Average Humidity 72    
Maximum Humidity 85    
Minimum Humidity 65    
Precipitation  
Precipitation 0.00 in - - ()
Sea Level Pressure  
Sea Level Pressure 30.23 in    
Wind  
Wind Speed 17 mph (NNW)    
Max Wind Speed 28 mph    
Max Gust Speed 37 mph    
Visibility 6 miles    
Events Snow    
Averages and records for this station are not official NWS values.
T = Trace of Precipitation, MM = Missing Value Source: NWS Daily Summary

Daily Weather History Graph

Daily Weather History Graph

Search for Another Location

Airport or City:

Trip Planner

Search our weather history database for the weather conditions in past years. The results will help you decide how hot, cold, wet, or windy it might be!

Date:

Astronomy

Jan. 22, 2014 Rise Set
Actual Time 7:53 AM CST 5:12 PM CST
Civil Twilight 7:21 AM CST 5:45 PM CST
Nautical Twilight 6:44 AM CST 6:22 PM CST
Astronomical Twilight 6:09 AM CST 6:57 PM CST
Moon No Moon Rise 10:33 AM CST (1/22)
Length of Visible Light 10h 24m
Length of Day
9h 19m
Waning Gibbous, 65% of the Moon is Illuminated
Jan 22
Waning Gibbous
Jan 23
Last Quarter
Jan 30
New
Feb 6
First Quarter
Feb 14
Full

Hourly Weather History & Observations

Time (CST) Temp. Windchill Dew Point Humidity Pressure Visibility Wind Dir Wind Speed Gust Speed Precip Events Conditions
12:05 AM 3.2 °F -13.1 °F -0.4 °F 85% 29.94 in 10.0 mi NW 11.5 mph - N/A   Mostly Cloudy
12:37 AM 3.2 °F -14.6 °F -0.4 °F 85% 29.95 in 10.0 mi NW 13.8 mph 23.0 mph N/A   Mostly Cloudy
12:53 AM 3.9 °F -13.7 °F - N/A% 30.08 in 10.0 mi NW 13.8 mph 23.0 mph N/A   Overcast
1:11 AM 5.0 °F -11.6 °F - N/A% 29.96 in 8.0 mi NW 12.7 mph 20.7 mph N/A   Overcast
1:53 AM 5.0 °F -14.2 °F - N/A% 30.07 in 7.0 mi NNW 17.3 mph 25.3 mph N/A   Overcast
2:53 AM 3.9 °F -14.3 °F -0.9 °F 80% 30.07 in 10.0 mi NW 15.0 mph - N/A   Overcast
3:53 AM 3.9 °F -13.0 °F -0.0 °F 84% 30.06 in 8.0 mi NW 12.7 mph - N/A   Overcast
4:53 AM 5.0 °F -14.7 °F -0.0 °F 80% 30.08 in 3.0 mi NW 18.4 mph - 0.00 in Snow Light Snow
5:53 AM 3.9 °F -15.6 °F - N/A% 30.10 in 4.0 mi NW 17.3 mph 23.0 mph 0.00 in   Haze
6:53 AM 1.9 °F -16.9 °F -5.1 °F 72% 30.13 in 9.0 mi NNW 15.0 mph - N/A   Overcast
7:53 AM -0.9 °F -23.0 °F -8.0 °F 72% 30.16 in 8.0 mi NNW 19.6 mph 26.5 mph N/A   Mostly Cloudy
8:09 AM -2.2 °F -24.1 °F -7.6 °F 78% 30.04 in 4.0 mi NNW 18.4 mph 26.5 mph N/A   Haze
8:25 AM -2.2 °F -28.0 °F -9.4 °F 71% 30.05 in 2.0 mi NNW 27.6 mph 36.8 mph N/A   Haze
8:28 AM -2.2 °F -27.1 °F -9.4 °F 71% 30.06 in 1.2 mi NNW 25.3 mph 36.8 mph N/A   Haze
8:35 AM -4.0 °F -28.1 °F -9.4 °F 78% 30.06 in 1.5 mi NNW 21.9 mph 32.2 mph N/A   Haze
8:47 AM -4.0 °F -27.0 °F -11.2 °F 71% 30.07 in 2.0 mi NNW 19.6 mph 33.4 mph N/A   Haze
8:53 AM -4.0 °F -27.6 °F -11.0 °F 72% 30.19 in 2.0 mi NNW 20.7 mph 33.4 mph N/A   Haze
9:13 AM -5.8 °F -29.9 °F -11.2 °F 77% 30.09 in 4.0 mi NNW 20.7 mph - N/A   Haze
9:20 AM -5.8 °F -29.4 °F -11.2 °F 77% 30.10 in 3.0 mi NNW 19.6 mph 26.5 mph N/A   Haze
9:35 AM -5.8 °F -29.4 °F -13.0 °F 71% 30.11 in 8.0 mi NNW 19.6 mph 24.2 mph N/A   Scattered Clouds
9:53 AM -5.1 °F -29.5 °F -13.0 °F 69% 30.25 in 2.0 mi NNW 21.9 mph 34.5 mph N/A   Haze
10:05 AM -5.8 °F -30.5 °F -13.0 °F 71% 30.13 in 2.5 mi NNW 21.9 mph 32.2 mph N/A   Haze
10:37 AM -5.8 °F -31.0 °F -14.8 °F 65% 30.15 in 3.0 mi NNW 23.0 mph 34.5 mph N/A   Haze
10:46 AM -5.8 °F -32.0 °F -14.8 °F 65% 30.15 in 2.5 mi NNW 25.3 mph 32.2 mph N/A   Haze
10:53 AM -6.0 °F -31.2 °F -14.1 °F 68% 30.29 in 3.0 mi NNW 23.0 mph 32.2 mph N/A   Haze
11:53 AM -7.1 °F -33.7 °F -15.0 °F 68% 30.31 in 2.5 mi NNW 25.3 mph 33.4 mph N/A   Haze
12:05 PM -7.6 °F -34.8 °F -14.8 °F 71% 30.18 in 1.5 mi NNW 26.5 mph 34.5 mph N/A   Haze
12:12 PM -7.6 °F -32.9 °F -14.8 °F 71% 30.18 in 3.0 mi NNW 21.9 mph 34.5 mph N/A   Haze
12:19 PM -7.6 °F -32.9 °F -14.8 °F 71% 30.19 in 3.0 mi NNW 21.9 mph 31.1 mph N/A   Haze
12:53 PM -7.1 °F -31.6 °F -15.0 °F 68% 30.33 in 3.0 mi NW 20.7 mph 33.4 mph N/A   Haze
1:53 PM -7.1 °F -34.1 °F -16.1 °F 65% 30.35 in 3.0 mi NNW 26.5 mph 31.1 mph N/A   Haze
2:53 PM -8.0 °F -33.3 °F -17.0 °F 65% 30.38 in 6.0 mi NW 21.9 mph 27.6 mph N/A   Haze
3:53 PM -8.0 °F -32.8 °F -17.0 °F 65% 30.42 in 5.0 mi NNW 20.7 mph 28.8 mph N/A   Haze
4:53 PM -9.9 °F -34.8 °F -18.0 °F 68% 30.47 in 9.0 mi NNW 19.6 mph 27.6 mph N/A   Clear
5:53 PM -11.9 °F -37.4 °F -20.0 °F 67% 30.51 in 10.0 mi NW 19.6 mph 25.3 mph N/A   Clear
6:53 PM -13.0 °F -37.5 °F -20.0 °F 71% 30.54 in 10.0 mi NNW 17.3 mph 25.3 mph N/A   Clear
7:53 PM -14.1 °F -37.4 °F -20.9 °F 71% 30.58 in 10.0 mi NNW 15.0 mph - N/A   Clear
8:53 PM -15.0 °F -37.7 °F -20.9 °F 75% 30.62 in 10.0 mi NNW 13.8 mph - N/A   Clear
9:53 PM -16.1 °F -37.2 °F -23.1 °F 71% 30.64 in 10.0 mi NNW 11.5 mph - N/A   Clear
10:53 PM -16.1 °F -39.1 °F -22.0 °F 74% 30.65 in 10.0 mi NNW 13.8 mph - N/A   Clear
11:53 PM -16.1 °F -36.2 °F -23.1 °F 71% 30.67 in 10.0 mi NNW 10.4 mph - N/A   Clear